When you browse on this site, cookies collect data to enhance your experience and personalize the content and advertising you see.
Visit our Privacy Policy to learn more. By continuing to use the site, you agree to this use of cookies and data.
  • In France
  • List of Countries
  • For 7 days
  • Water Temperature
  • Weather Map
  • Weather Widgets
  • user-avatar
    Login

    Hourly Weather Solwezi

    Today, 26 August, Monday

    Time Temperature Precipitation Wind Pressure Humidity
    00:00 +30°C° 0 mm 5 mps 714 mmHg 62%
    01:00 +29°C° 0 mm 5 mps 713 mmHg 65%
    02:00 +28°C° 0 mm 6 mps 713 mmHg 69%
    03:00 +28°C° 0.2 mm 5 mps 713 mmHg 70%
    04:00 +27°C° 0.2 mm 4 mps 713 mmHg 71%
    05:00 +27°C° 0.2 mm 3 mps 714 mmHg 72%
    06:00 +27°C° 1 mm 3 mps 714 mmHg 72%
    07:00 +26°C° 1 mm 3 mps 714 mmHg 71%
    08:00 +26°C° 1 mm 3 mps 715 mmHg 71%
    09:00 +28°C° 0 mm 3 mps 715 mmHg 64%
    10:00 +30°C° 0 mm 3 mps 714 mmHg 58%
    11:00 +33°C° 0 mm 3 mps 714 mmHg 51%
    12:00 +34°C° 0 mm 3 mps 714 mmHg 47%
    13:00 +35°C° 0 mm 2 mps 713 mmHg 43%
    14:00 +35°C° 0 mm 1 mps 713 mmHg 39%
    15:00 +36°C° 0 mm 1 mps 712 mmHg 38%
    16:00 +37°C° 0 mm 2 mps 712 mmHg 37%
    17:00 +37°C° 0 mm 2 mps 712 mmHg 36%
    18:00 +36°C° 0.1 mm 3 mps 712 mmHg 40%
    19:00 +35°C° 0.1 mm 4 mps 712 mmHg 44%
    20:00 +34°C° 0.1 mm 5 mps 712 mmHg 48%
    21:00 +30°C° 8.5 mm 6 mps 713 mmHg 60%
    22:00 +28°C° 8.5 mm 7 mps 714 mmHg 73%
    23:00 +26°C° 8.5 mm 7 mps 714 mmHg 85%

    Tomorrow, 27 August, Tuesday

    Time Temperature Precipitation Wind Pressure Humidity
    00:00 +24°C° 4.9 mm 6 mps 714 mmHg 85%
    01:00 +23°C° 4.9 mm 5 mps 714 mmHg 85%
    02:00 +24°C° 4.9 mm 3 mps 714 mmHg 85%
    03:00 +24°C° 0 mm 3 mps 714 mmHg 83%
    04:00 +25°C° 0 mm 4 mps 714 mmHg 81%
    05:00 +25°C° 0 mm 4 mps 714 mmHg 80%
    06:00 +25°C° 0 mm 3 mps 714 mmHg 79%
    07:00 +25°C° 0 mm 3 mps 715 mmHg 79%
    08:00 +25°C° 0 mm 2 mps 715 mmHg 79%
    09:00 +26°C° 0 mm 2 mps 715 mmHg 76%
    10:00 +26°C° 0 mm 2 mps 715 mmHg 73%
    11:00 +27°C° 0 mm 2 mps 715 mmHg 69%
    12:00 +28°C° 0 mm 2 mps 715 mmHg 66%
    13:00 +29°C° 0 mm 2 mps 714 mmHg 63%
    14:00 +30°C° 0 mm 2 mps 714 mmHg 59%
    15:00 +30°C° 0.1 mm 2 mps 713 mmHg 60%
    16:00 +30°C° 0.1 mm 2 mps 713 mmHg 60%
    17:00 +30°C° 0.1 mm 2 mps 713 mmHg 61%
    18:00 +29°C° 0.1 mm 1 mps 713 mmHg 63%
    19:00 +29°C° 0.1 mm 1 mps 713 mmHg 65%
    20:00 +29°C° 0.1 mm 1 mps 714 mmHg 67%
    21:00 +28°C° 0 mm 1 mps 714 mmHg 69%
    22:00 +28°C° 0 mm 1 mps 714 mmHg 71%
    23:00 +28°C° 0 mm 1 mps 715 mmHg 73%

    Day after tomorrow, 28 August, Wednesday

    Time Temperature Precipitation Wind Pressure Humidity
    00:00 +27°C° 0 mm 2 mps 714 mmHg 75%
    01:00 +27°C° 0 mm 2 mps 714 mmHg 77%
    02:00 +27°C° 0 mm 2 mps 714 mmHg 79%
    03:00 +26°C° 0 mm 2 mps 714 mmHg 81%
    04:00 +26°C° 0 mm 2 mps 714 mmHg 82%
    05:00 +26°C° 0 mm 2 mps 714 mmHg 83%
    06:00 +26°C° 0 mm 2 mps 714 mmHg 80%
    07:00 +27°C° 0 mm 3 mps 715 mmHg 77%
    08:00 +27°C° 0 mm 3 mps 715 mmHg 75%
    09:00 +29°C° 0 mm 3 mps 715 mmHg 67%
    10:00 +31°C° 0 mm 3 mps 715 mmHg 59%
    11:00 +33°C° 0 mm 4 mps 715 mmHg 51%
    12:00 +34°C° 0 mm 4 mps 714 mmHg 47%
    13:00 +35°C° 0 mm 4 mps 714 mmHg 43%
    14:00 +36°C° 0 mm 4 mps 713 mmHg 38%
    15:00 +36°C° 0 mm 4 mps 713 mmHg 38%
    16:00 +36°C° 0 mm 3 mps 712 mmHg 38%
    17:00 +36°C° 0 mm 3 mps 712 mmHg 38%
    18:00 +35°C° 0 mm 3 mps 712 mmHg 42%
    19:00 +34°C° 0 mm 3 mps 712 mmHg 46%
    20:00 +33°C° 0 mm 3 mps 713 mmHg 50%
    21:00 +31°C° 0 mm 3 mps 713 mmHg 53%
    22:00 +31°C° 0 mm 3 mps 713 mmHg 56%
    23:00 +30°C° 0 mm 4 mps 714 mmHg 58%

    29 August, Thursday

    Time Temperature Precipitation Wind Pressure Humidity
    00:00 +30°C° 0 mm 3 mps 713 mmHg 61%
    01:00 +29°C° 0 mm 3 mps 713 mmHg 63%
    02:00 +29°C° 0 mm 3 mps 713 mmHg 65%
    03:00 +28°C° 0 mm 3 mps 713 mmHg 67%
    04:00 +28°C° 0 mm 4 mps 713 mmHg 70%
    05:00 +28°C° 0 mm 4 mps 713 mmHg 72%
    06:00 +28°C° 0 mm 4 mps 713 mmHg 72%
    07:00 +28°C° 0 mm 4 mps 713 mmHg 71%
    08:00 +29°C° 0 mm 3 mps 714 mmHg 71%
    09:00 +30°C° 0 mm 4 mps 714 mmHg 63%
    10:00 +33°C° 0 mm 4 mps 714 mmHg 56%
    11:00 +35°C° 0 mm 4 mps 714 mmHg 48%
    12:00 +36°C° 0 mm 4 mps 713 mmHg 44%
    13:00 +37°C° 0 mm 3 mps 713 mmHg 41%
    14:00 +38°C° 0 mm 3 mps 712 mmHg 37%
    15:00 +38°C° 0 mm 2 mps 712 mmHg 36%
    16:00 +38°C° 0 mm 2 mps 711 mmHg 35%
    17:00 +37°C° 0 mm 1 mps 711 mmHg 34%
    18:00 +37°C° 0 mm 2 mps 711 mmHg 37%
    19:00 +36°C° 0 mm 3 mps 711 mmHg 39%
    20:00 +35°C° 0 mm 3 mps 712 mmHg 42%
    21:00 +33°C° 0.7 mm 3 mps 712 mmHg 50%
    22:00 +30°C° 0.7 mm 3 mps 712 mmHg 58%
    23:00 +28°C° 0.7 mm 3 mps 712 mmHg 66%

    30 August, Friday

    Time Temperature Precipitation Wind Pressure Humidity
    00:00 +28°C° 0.4 mm 3 mps 712 mmHg 68%
    01:00 +28°C° 0.4 mm 3 mps 712 mmHg 69%
    02:00 +27°C° 0.4 mm 3 mps 711 mmHg 70%
    03:00 +27°C° 0.2 mm 2 mps 711 mmHg 70%
    04:00 +27°C° 0.2 mm 2 mps 711 mmHg 69%
    05:00 +27°C° 0.2 mm 1 mps 711 mmHg 69%
    06:00 +28°C° 0 mm 1 mps 712 mmHg 66%
    07:00 +28°C° 0 mm 2 mps 712 mmHg 63%
    08:00 +29°C° 0 mm 2 mps 713 mmHg 59%
    09:00 +31°C° 0.2 mm 3 mps 713 mmHg 55%
    10:00 +33°C° 0.2 mm 3 mps 713 mmHg 51%
    11:00 +35°C° 0.2 mm 3 mps 714 mmHg 47%
    12:00 +35°C° 0 mm 3 mps 713 mmHg 44%
    13:00 +36°C° 0 mm 3 mps 712 mmHg 41%
    14:00 +37°C° 0 mm 3 mps 712 mmHg 39%
    15:00 +37°C° 0 mm 2 mps 711 mmHg 38%
    16:00 +36°C° 0 mm 1 mps 711 mmHg 37%
    17:00 +34°C° 0 mm 0 mps 710 mmHg 36%
    18:00 +35°C° 0.1 mm 1 mps 710 mmHg 39%
    19:00 +35°C° 0.1 mm 2 mps 711 mmHg 42%
    20:00 +34°C° 0.1 mm 3 mps 711 mmHg 46%
    21:00 +32°C° 1.5 mm 4 mps 711 mmHg 52%
    22:00 +30°C° 1.5 mm 5 mps 712 mmHg 59%
    23:00 +28°C° 1.5 mm 6 mps 712 mmHg 65%

    31 August, Saturday

    Time Temperature Precipitation Wind Pressure Humidity
    00:00 +27°C° 1.4 mm 6 mps 712 mmHg 70%
    01:00 +26°C° 1.4 mm 7 mps 712 mmHg 74%
    02:00 +26°C° 1.4 mm 7 mps 712 mmHg 79%
    03:00 +24°C° 0.9 mm 6 mps 712 mmHg 79%
    04:00 +25°C° 0.9 mm 5 mps 712 mmHg 80%
    05:00 +24°C° 0.9 mm 3 mps 712 mmHg 81%
    06:00 +25°C° 0 mm 3 mps 712 mmHg 76%
    07:00 +26°C° 0 mm 2 mps 712 mmHg 71%
    08:00 +27°C° 0 mm 1 mps 712 mmHg 67%
    09:00 +27°C° 0 mm 2 mps 713 mmHg 66%
    10:00 +28°C° 0 mm 3 mps 713 mmHg 65%
    11:00 +28°C° 0 mm 5 mps 713 mmHg 64%
    12:00 +29°C° 0 mm 5 mps 712 mmHg 61%
    13:00 +30°C° 0 mm 5 mps 712 mmHg 58%
    14:00 +32°C° 0 mm 5 mps 712 mmHg 54%
    15:00 +32°C° 0 mm 4 mps 712 mmHg 55%
    16:00 +32°C° 0 mm 4 mps 712 mmHg 55%
    17:00 +31°C° 0 mm 3 mps 711 mmHg 55%
    18:00 +30°C° 0 mm 3 mps 712 mmHg 60%
    19:00 +29°C° 0 mm 3 mps 712 mmHg 65%
    20:00 +28°C° 0 mm 3 mps 712 mmHg 70%
    21:00 +28°C° 0 mm 3 mps 712 mmHg 71%
    22:00 +27°C° 0 mm 3 mps 713 mmHg 73%
    23:00 +27°C° 0 mm 2 mps 713 mmHg 75%
    Show more